K4YY Weather Reports


Display with metric or nautical units.
time (UTC)temp
F
wind
direction
speed
MPH
gust
MPH
rain 1hr
in
rain 24hr
in
rain mn
in
humidity
%
barometer
mb
20260506210518 90 203 6.0 11.0 0.00 0.00 0.00 43 1012.7
20260506205518 90 203 6.0 10.0 0.00 0.00 0.00 45 1012.8
20260506204538 91 180 2.0 6.0 0.00 0.00 0.00 44 1012.9
20260506203518 90 203 6.0 11.0 0.00 0.00 0.00 43 1013.0
20260506202518 90 203 5.0 13.0 0.00 0.00 0.00 44 1013.0
20260506201518 90 225 5.0 8.0 0.00 0.00 0.00 43 1013.1
20260506200518 90 203 5.0 10.0 0.00 0.00 0.00 43 1013.2
20260506195538 90 203 5.0 11.0 0.00 0.00 0.00 43 1013.5
20260506194538 90 203 3.0 7.0 0.00 0.00 0.00 43 1013.6
20260506193518 90 203 5.0 10.0 0.00 0.00 0.00 44 1013.8
20260506192518 89 180 5.0 11.0 0.00 0.00 0.00 46 1014.0
20260506191518 88 225 4.0 9.0 0.00 0.00 0.00 49 1014.0
20260506190518 89 225 3.0 7.0 0.00 0.00 0.00 46 1014.2
20260506185538 88 203 6.0 12.0 0.00 0.00 0.00 49 1014.2
20260506184518 88 225 5.0 11.0 0.00 0.00 0.00 50 1014.4
20260506183538 87 203 6.0 12.0 0.00 0.00 0.00 50 1014.4
20260506182518 87 180 4.0 10.0 0.00 0.00 0.00 51 1014.5
20260506181518 87 203 5.0 10.0 0.00 0.00 0.00 52 1014.8
20260506180518 86 225 4.0 7.0 0.00 0.00 0.00 53 1014.9
20260506175518 86 203 4.0 8.0 0.00 0.00 0.00 55 1015.0
20260506174518 86 203 4.0 10.0 0.00 0.00 0.00 54 1015.1
20260506173518 85 203 4.0 10.0 0.00 0.00 0.00 55 1015.2
20260506172518 85 203 4.0 7.0 0.00 0.00 0.00 57 1015.4
20260506171518 85 225 5.0 9.0 0.00 0.00 0.00 57 1015.4
20260506170518 84 180 3.0 7.0 0.00 0.00 0.00 59 1015.6
20260506165518 84 203 6.0 10.0 0.00 0.00 0.00 57 1015.7
20260506164518 83 180 5.0 9.0 0.00 0.00 0.00 59 1015.9
20260506163538 83 203 4.0 7.0 0.00 0.00 0.00 61 1016.2
20260506162518 83 203 4.0 9.0 0.00 0.00 0.00 60 1016.1
20260506161518 82 203 3.0 8.0 0.00 0.00 0.00 60 1016.1
20260506160518 82 203 6.0 13.0 0.00 0.00 0.00 61 1016.3
20260506155518 81 203 6.0 12.0 0.00 0.00 0.00 62 1016.4
20260506154518 81 203 4.0 8.0 0.00 0.00 0.00 63 1016.4
20260506153518 80 203 7.0 12.0 0.00 0.00 0.00 63 1016.3
20260506152518 80 180 6.0 11.0 0.00 0.00 0.00 65 1016.4
20260506151518 79 203 6.0 11.0 0.00 0.00 0.00 65 1016.3
20260506150518 79 180 4.0 7.0 0.00 0.00 0.00 67 1016.2
20260506145538 78 203 5.0 11.0 0.00 0.00 0.00 67 1016.3
20260506144538 78 203 5.0 11.0 0.00 0.00 0.00 67 1016.1
20260506143518 77 203 6.0 11.0 0.00 0.00 0.00 68 1016.0
20260506142518 77 203 5.0 9.0 0.00 0.00 0.00 68 1016.0
20260506141518 77 180 5.0 10.0 0.00 0.00 0.00 69 1015.9
20260506140518 76 203 5.0 8.0 0.00 0.00 0.00 70 1016.1
20260506135518 76 203 4.0 7.0 0.00 0.00 0.00 71 1016.1
20260506134518 75 203 5.0 10.0 0.00 0.00 0.00 71 1016.2
20260506133518 75 203 4.0 9.0 0.00 0.00 0.00 72 1016.2
20260506132518 74 180 4.0 10.0 0.00 0.00 0.00 72 1016.1
20260506131518 74 180 4.0 8.0 0.00 0.00 0.00 72 1016.2
20260506130518 74 180 4.0 8.0 0.00 0.00 0.00 73 1016.0
20260506125618 73 203 5.0 8.0 0.00 0.00 0.00 73 1016.0
20260506124518 73 225 5.0 10.0 0.00 0.00 0.00 74 1015.8
20260506123518 72 225 4.0 8.0 0.00 0.00 0.00 75 1015.9
20260506122518 72 225 4.0 7.0 0.00 0.00 0.00 76 1015.9
20260506121518 71 203 3.0 5.0 0.00 0.00 0.00 77 1015.6
20260506120518 70 203 3.0 7.0 0.00 0.00 0.00 78 1015.5
20260506115518 69 203 2.0 4.0 0.00 0.00 0.00 80 1015.4
20260506114518 68 203 2.0 3.0 0.00 0.00 0.00 82 1015.2
20260506113518 67 203 1.0 3.0 0.00 0.00 0.00 82 1015.4
20260506112518 67 203 1.0 2.0 0.00 0.00 0.00 82 1015.3
20260506111518 66 0.0 1.0 0.00 0.00 0.00 82 1015.2
20260506110519 66 0.0 0.0 0.00 0.00 0.00 81 1014.9
20260506105539 66 0.0 0.0 0.00 0.00 0.00 81 1014.9
20260506104519 66 0.0 0.0 0.00 0.00 0.00 81 1015.1
20260506103519 66 0.0 0.0 0.00 0.00 0.00 81 1015.0
20260506102518 66 0.0 0.0 0.00 0.00 0.00 80 1014.8
20260506101518 66 0.0 0.0 0.00 0.00 0.00 80 1014.7
20260506100518 66 0.0 0.0 0.00 0.00 0.00 80 1014.7
20260506095539 67 0.0 0.0 0.00 0.00 0.00 81 1014.9
20260506094559 67 0.0 0.0 0.00 0.00 0.00 81 1014.9
20260506093538 66 0.0 0.0 0.00 0.00 0.00 80 1014.9
20260506092518 66 0.0 0.0 0.00 0.00 0.00 80 1014.7
20260506091519 66 0.0 0.0 0.00 0.00 0.00 79 1014.6
20260506090539 67 0.0 2.0 0.00 0.00 0.00 80 1014.2
20260506085538 66 0.0 2.0 0.00 0.00 0.00 80 1014.6
20260506084518 67 0.0 0.0 0.00 0.00 0.00 81 1014.6
20260506083519 66 0.0 0.0 0.00 0.00 0.00 80 1014.5
20260506082519 67 0.0 0.0 0.00 0.00 0.00 80 1014.4
20260506081518 67 0.0 0.0 0.00 0.00 0.00 80 1014.5
20260506080519 67 0.0 0.0 0.00 0.00 0.00 80 1014.6
20260506073519 67 0.0 0.0 0.00 0.00 0.00 79 1014.4
20260506072539 67 0.0 0.0 0.00 0.00 0.00 76 1014.2
20260506071519 67 0.0 0.0 0.00 0.00 0.00 75 1014.3
20260506070519 68 0.0 0.0 0.00 0.00 0.00 75 1014.6
20260506061519 68 0.0 0.0 0.00 0.00 0.00 71 1015.2
20260506060519 68 0.0 1.0 0.00 0.00 0.00 71 1015.2
20260506050519 68 0.0 0.0 0.00 0.00 0.00 71 1015.5
20260506044539 68 0.0 0.0 0.00 0.00 0.00 71 1015.6
20260506043519 68 0.0 0.0 0.00 0.00 0.00 71 1015.8
20260506042519 68 0.0 0.0 0.00 0.00 0.00 70 1015.7
20260506041519 68 0.0 0.0 0.00 0.00 0.00 70 1015.8
20260506040539 69 0.0 0.0 0.00 0.00 0.00 70 1015.8
20260506035518 69 0.0 0.0 0.00 0.00 0.00 69 1015.9
20260506034518 69 0.0 0.0 0.00 0.00 0.00 68 1015.9
20260506033518 69 0.0 0.0 0.00 0.00 0.00 68 1015.8
20260506032518 69 0.0 0.0 0.00 0.00 0.00 67 1015.9
20260506031518 70 0.0 0.0 0.00 0.00 0.00 67 1015.8
20260506030518 70 0.0 0.0 0.00 0.00 0.00 66 1015.7
20260506025519 70 0.0 0.0 0.00 0.00 0.00 66 1015.6
20260506024538 71 0.0 1.0 0.00 0.00 0.00 66 1015.6
20260506023518 71 0.0 2.0 0.00 0.00 0.00 66 1015.5
20260506022518 71 0.0 0.0 0.00 0.00 0.00 65 1015.4
20260506021539 71 0.0 0.0 0.00 0.00 0.00 65 1015.2
20260506020518 71 0.0 3.0 0.00 0.00 0.00 65 1015.0
20260506015518 71 0.0 2.0 0.00 0.00 0.00 65 1014.9
20260506014518 72 0.0 2.0 0.00 0.00 0.00 65 1014.7
20260506013518 72 0.0 1.0 0.00 0.00 0.00 64 1014.9
20260506012559 72 0.0 1.0 0.00 0.00 0.00 64 1014.9
20260506011518 72 180 1.0 4.0 0.00 0.00 0.00 63 1014.8
20260506010539 73 0.0 3.0 0.00 0.00 0.00 63 1014.7
20260506005519 73 113 1.0 4.0 0.00 0.00 0.00 62 1014.7
20260506004518 73 225 1.0 3.0 0.00 0.00 0.00 63 1014.7
20260506003619 73 158 1.0 2.0 0.00 0.00 0.00 62 1014.6
20260506002519 74 113 1.0 4.0 0.00 0.00 0.00 62 1014.5
20260506001519 74 225 1.0 5.0 0.00 0.00 0.00 61 1014.5
20260506000519 74 23 1.0 5.0 0.00 0.00 0.00 60 1014.2
20260505235542 75 338 1.0 3.0 0.00 0.00 0.00 59 1014.2
20260505234519 76 135 1.0 5.0 0.00 0.00 0.00 59 1014.3
20260505233519 77 45 1.0 4.0 0.00 0.00 0.00 57 1014.3
20260505232518 77 180 2.0 6.0 0.00 0.00 0.00 56 1014.2
20260505231519 78 135 1.0 4.0 0.00 0.00 0.00 54 1014.1
20260505230539 79 225 2.0 4.0 0.00 0.00 0.00 50 1014.2
20260505225518 79 0 1.0 8.0 0.00 0.00 0.00 51 1014.1
20260505224518 80 68 1.0 3.0 0.00 0.00 0.00 49 1014.1
20260505223539 79 270 1.0 3.0 0.00 0.00 0.00 50 1014.2
20260505222519 79 68 1.0 5.0 0.00 0.00 0.00 53 1014.2
20260505221519 79 68 2.0 7.0 0.00 0.00 0.00 51 1014.2
20260505220519 79 45 1.0 5.0 0.00 0.00 0.00 52 1014.1
20260505215519 79 45 2.0 7.0 0.00 0.00 0.00 51 1014.1
20260505214519 79 45 2.0 8.0 0.00 0.00 0.00 52 1014.1
20260505213518 79 68 3.0 9.0 0.00 0.00 0.00 50 1014.1
20260505212519 79 23 2.0 8.0 0.00 0.00 0.00 52 1014.2
20260505211519 79 23 3.0 7.0 0.00 0.00 0.00 52 1014.1